Home > Weather > Olympia > Past weeks

Flag for U.S.A. Weather for the Past 2 Weeks in Olympia, Washington, U.S.A.

Now
47 °F

More clouds than sun.


Feels Like: 47 °F
Forecast: 39 / 51 °F
Wind: No wind

Location: Olympia Airport

Current Time: Feb 6, 2016 at 3:51:37 PM

Latest Report: Feb 6, 2016 at 2:54 PM


Visibility: 10 mi

Pressure: 30.46 "Hg

Humidity: 80%

Dew point: 41 °F

Location of OlympiaLocation

Historic Weather in Olympia — Graph

°F

Olympia Temperature Yesterday

Maximum temperature yesterday: 54 °F (at 2:54 PM)
Minimum temperature yesterday: 36 °F (at 5:54 AM)
Average temperature yesterday: 45 °F

High & Low Weather Summary for the Past Weeks

 TemperatureHumidityPressure
High58 °F (Jan 27, 1:54 PM)100% (Jan 23, 1:57 AM)30.48 "Hg (Jan 23, 1:57 AM)
Low28 °F (Feb 2, 6:54 AM)51% (Feb 5, 2:54 PM)29.62 "Hg (Jan 29, 7:54 AM)
Average44 °F89%30.10 "Hg
* Reported Jan 22 2:54 PM — Feb 6 2:54 PM, Olympia, Weather by CustomWeather, © 2016

Note: Actual official high and low records may vary slightly from our data, if they occured in-between our weather recording intervals... More about our weather records

Advertising

Olympia Weather History for the Previous 24 Hours

 ConditionsComfort  
Time TempWeatherWind HumidityBarometerVisibility
2:54 PM
Sat, Feb 6
47 °FMore clouds than sun.No wind80%30.46 "Hg10 mi
1:54 PM47 °FSunny.No wind83%30.46 "Hg10 mi
12:54 PM46 °FPassing clouds.5 mph86%30.46 "Hg10 mi
11:54 AM45 °FScattered clouds.5 mph90%30.47 "Hg10 mi
10:54 AM45 °FScattered clouds.6 mph90%30.48 "Hg10 mi
9:54 AM44 °FPassing clouds.5 mph89%30.47 "Hg10 mi
8:54 AM42 °FScattered clouds.No wind92%30.48 "Hg10 mi
7:54 AM40 °FSunny.7 mph93%30.45 "Hg10 mi
6:54 AM42 °FLight rain. Fog.5 mph89%30.45 "Hg6 mi
6:02 AM42 °FMostly cloudy.8 mph89%30.42 "Hg10 mi
5:54 AM43 °FLight rain. Mostly cloudy.7 mph89%30.42 "Hg7 mi
4:54 AM43 °FLight rain. Overcast.9 mph89%30.40 "Hg7 mi
3:54 AM41 °FOvercast.9 mph96%30.37 "Hg10 mi
2:54 AM42 °FLight rain. Mostly cloudy.5 mph89%30.35 "Hg10 mi
1:54 AM40 °FLight rain. Mostly cloudy.No wind97%30.33 "Hg10 mi
12:54 AM43 °FRain. Mostly cloudy.9 mph82%30.33 "Hg3 mi
11:54 PM
Fri, Feb 5
43 °FLight rain. Overcast.5 mph89%30.31 "Hg9 mi
10:54 PM44 °FMostly cloudy.6 mph82%30.27 "Hg10 mi
9:54 PM45 °FPartly cloudy.9 mph82%30.24 "Hg10 mi
8:54 PM47 °FMostly cloudy.10 mph80%30.21 "Hg10 mi
7:54 PM48 °FPassing clouds.10 mph77%30.16 "Hg10 mi
7:01 PM47 °FMostly cloudy.10 mph90%30.13 "Hg10 mi
5:54 PM48 °FLight rain. Mostly cloudy.14 mph86%30.09 "Hg10 mi
4:54 PM48 °FRain. Overcast.14 mph80%30.08 "Hg5 mi
3:54 PM51 °FLight rain. Mostly cloudy.16 mph66%30.03 "Hg7 mi
Weather by CustomWeather, © 2016

See weather overviewHow to use our weather pages